Home > Weather > Halifax > Past weeks

Flag for Canada Past Weather in Halifax, Nova Scotia, Canada — Yesterday and Last 2 Weeks

Now
55 °F

Passing clouds.


Feels Like: 53 °F
Forecast: 50 / 68 °F
Wind: 9 mph from South

Location: Halifax International Airport

Current Time: Jun 26, 2016 at 12:02:56 AM

Latest Report: Jun 25, 2016 at 11:00 PM


Visibility: 15 mi

Pressure: 30.25 "Hg

Humidity: 94%

Dew Point: 54 °F

Location of HalifaxLocation

Past Weather in Halifax — Graph

°F

Halifax Temperature Yesterday

Maximum temperature yesterday: 75 °F (at 2:00 PM)
Minimum temperature yesterday: 54 °F (at 1:00 AM)
Average temperature yesterday: 64 °F

High & Low Weather Summary for the Past Weeks

 TemperatureHumidityPressure
High81 °F (Jun 19, 3:00 PM)100% (Jun 12, 7:00 AM)30.28 "Hg (Jun 12, 7:00 AM)
Low41 °F (Jun 17, 5:00 AM)21% (Jun 19, 12:00 PM)29.38 "Hg (Jun 13, 6:00 AM)
Average58 °F73%29.84 "Hg
* Reported Jun 10 11:00 PM — Jun 25 11:00 PM, Halifax, Weather by CustomWeather, © 2016

Note: Actual official high and low records may vary slightly from our data, if they occured in-between our weather recording intervals... More about our weather records

Advertising

Halifax Weather History for the Previous 24 Hours

Scroll right to see more
 ConditionsComfort  
Time TempWeatherWind HumidityBarometerVisibility
11:00 PM
Sat, Jun 25
55 °FPassing clouds.9 mph94%30.25 "Hg15 mi
10:00 PM57 °FPartly sunny.9 mph77%30.24 "Hg15 mi
9:00 PM61 °FPartly sunny.7 mph68%30.23 "Hg15 mi
8:00 PM64 °FPartly sunny.6 mph56%30.23 "Hg15 mi
7:00 PM68 °FPartly sunny.8 mph46%30.22 "Hg15 mi
6:00 PM72 °FPartly sunny.8 mph44%30.22 "Hg15 mi
5:00 PM73 °FPartly sunny.9 mph38%30.22 "Hg15 mi
4:00 PM75 °FPartly sunny.9 mph34%30.22 "Hg15 mi
3:00 PM75 °FPartly sunny.8 mph34%30.23 "Hg15 mi
2:00 PM75 °FScattered clouds.9 mph36%30.23 "Hg15 mi
1:00 PM73 °FScattered clouds.10 mph38%30.24 "Hg15 mi
12:00 PM73 °FPassing clouds.7 mph44%30.25 "Hg15 mi
11:00 AM70 °FSunny.7 mph46%30.24 "Hg15 mi
10:00 AM70 °FSunny.8 mph50%30.26 "Hg15 mi
9:00 AM66 °FSunny.6 mph60%30.24 "Hg15 mi
8:00 AM61 °FSunny.6 mph68%30.24 "Hg15 mi
7:00 AM59 °FPassing clouds.7 mph68%30.22 "Hg15 mi
6:00 AM55 °FPassing clouds.8 mph72%30.21 "Hg15 mi
5:00 AM57 °FPassing clouds.9 mph63%30.20 "Hg15 mi
4:00 AM57 °FClear.8 mph59%30.19 "Hg15 mi
3:00 AM54 °FClear.10 mph77%30.18 "Hg15 mi
2:00 AM54 °FClear.6 mph72%30.16 "Hg15 mi
1:00 AM54 °FClear.3 mph72%30.16 "Hg15 mi
12:00 AM55 °FClear.6 mph67%30.15 "Hg15 mi
Weather by CustomWeather, © 2016

See weather overviewHow to use our weather pages